,,PressureMeas_1m,,PRMeasQMR101_1,,RHStat155_1m_1,,SRMeasQMS101R_1m,,TAStat155_1m_1,,GenWind_1,,GenWind_1,
2017-07-18, 00:00:06,VALID,919.146,VALID,0.0,VALID,96.946,VALID,-0.008,VALID,20.701,VALID,339.0,VALID,0.0,
2017-07-18, 00:01:06,VALID,919.131,VALID,0.0,VALID,96.873,VALID,0.014,VALID,20.723,VALID,340.0,VALID,0.0,
2017-07-18, 00:02:06,VALID,919.112,VALID,0.0,VALID,96.807,VALID,0.001,VALID,20.722,VALID,4.0,VALID,0.481,
2017-07-18, 00:03:06,VALID,919.087,VALID,0.0,VALID,96.751,VALID,-0.002,VALID,20.71,VALID,356.0,VALID,1.032,
2017-07-18, 00:04:06,VALID,919.053,VALID,0.0,VALID,96.758,VALID,-0.016,VALID,20.706,VALID,357.0,VALID,0.607,
2017-07-18, 00:05:06,VALID,919.027,VALID,0.0,VALID,96.769,VALID,-0.027,VALID,20.7,VALID,3.0,VALID,0.768,
2017-07-18, 00:06:06,VALID,919.019,VALID,0.0,VALID,96.84,VALID,-0.01,VALID,20.706,VALID,9.0,VALID,0.584,
2017-07-18, 00:07:06,VALID,919.023,VALID,0.0,VALID,96.848,VALID,-0.021,VALID,20.725,VALID,8.0,VALID,0.635,
2017-07-18, 00:08:06,VALID,919.006,VALID,0.0,VALID,96.675,VALID,-0.001,VALID,20.716,VALID,360.0,VALID,0.553,
2017-07-18, 00:09:06,VALID,918.983,VALID,0.0,VALID,96.741,VALID,-0.011,VALID,20.729,VALID,6.0,VALID,0.552,
2017-07-18, 00:10:06,VALID,918.959,VALID,0.0,VALID,96.637,VALID,0.004,VALID,20.742,VALID,5.0,VALID,0.361,
2017-07-18, 00:11:06,VALID,918.917,VALID,0.0,VALID,96.483,VALID,0.004,VALID,20.73,VALID,3.0,VALID,0.759,
2017-07-18, 00:12:06,VALID,918.895,VALID,0.0,VALID,96.462,VALID,0.007,VALID,20.712,VALID,360.0,VALID,0.915,
2017-07-18, 00:13:06,VALID,918.892,VALID,0.0,VALID,96.422,VALID,-0.001,VALID,20.689,VALID,354.0,VALID,0.801,
2017-07-18, 00:14:06,VALID,918.912,VALID,0.0,VALID,96.552,VALID,-0.014,VALID,20.696,VALID,349.0,VALID,0.311,
2017-07-18, 00:15:06,VALID,918.925,VALID,0.0,VALID,96.547,VALID,-0.015,VALID,20.717,VALID,346.0,VALID,0.129,
2017-07-18, 00:16:06,VALID,918.941,VALID,0.0,VALID,96.506,VALID,0.008,VALID,20.722,VALID,348.0,VALID,0.288,
2017-07-18, 00:17:06,VALID,918.937,VALID,0.0,VALID,96.541,VALID,0.0,VALID,20.737,VALID,8.0,VALID,0.454,
2017-07-18, 00:18:06,VALID,918.942,VALID,0.0,VALID,96.504,VALID,0.009,VALID,20.762,VALID,14.0,VALID,0.465,
2017-07-18, 00:19:06,VALID,918.946,VALID,0.0,VALID,96.361,VALID,0.006,VALID,20.758,VALID,320.0,VALID,0.268,
2017-07-18, 00:20:06,VALID,918.941,VALID,0.0,VALID,96.233,VALID,0.006,VALID,20.756,VALID,331.0,VALID,0.312,
2017-07-18, 00:21:06,VALID,918.944,VALID,0.0,VALID,96.334,VALID,0.018,VALID,20.784,VALID,7.0,VALID,0.058,
2017-07-18, 00:22:06,VALID,918.941,VALID,0.0,VALID,96.361,VALID,0.015,VALID,20.817,VALID,15.0,VALID,0.0,
2017-07-18, 00:23:06,VALID,918.931,VALID,0.0,VALID,96.201,VALID,0.02,VALID,20.834,VALID,10.0,VALID,0.082,
2017-07-18, 00:24:06,VALID,918.919,VALID,0.0,VALID,96.071,VALID,-0.003,VALID,20.841,VALID,14.0,VALID,0.545,
2017-07-18, 00:25:06,VALID,918.912,VALID,0.0,VALID,96.115,VALID,-0.009,VALID,20.871,VALID,34.0,VALID,0.355,
2017-07-18, 00:26:06,VALID,918.899,VALID,0.0,VALID,96.064,VALID,-0.017,VALID,20.9,VALID,14.0,VALID,0.237,
2017-07-18, 00:27:06,VALID,918.908,VALID,0.0,VALID,95.991,VALID,-0.013,VALID,20.926,VALID,22.0,VALID,0.105,
2017-07-18, 00:28:06,VALID,918.891,VALID,0.0,VALID,95.86,VALID,-0.015,VALID,20.932,VALID,22.0,VALID,0.075,
2017-07-18, 00:29:06,VALID,918.883,VALID,0.0,VALID,95.881,VALID,-0.006,VALID,20.958,VALID,20.0,VALID,0.529,
2017-07-18, 00:30:07,VALID,918.861,VALID,0.0,VALID,95.808,VALID,-0.004,VALID,20.989,VALID,22.0,VALID,0.501,
2017-07-18, 00:31:07,VALID,918.82,VALID,0.0,VALID,95.595,VALID,0.002,VALID,20.994,VALID,28.0,VALID,0.614,
2017-07-18, 00:32:07,VALID,918.788,VALID,0.0,VALID,95.557,VALID,-0.019,VALID,20.984,VALID,22.0,VALID,0.582,
2017-07-18, 00:33:07,VALID,918.754,VALID,0.0,VALID,95.415,VALID,-0.005,VALID,20.963,VALID,5.0,VALID,0.726,
2017-07-18, 00:34:07,VALID,918.718,VALID,0.0,VALID,95.282,VALID,-0.003,VALID,20.916,VALID,8.0,VALID,0.227,
2017-07-18, 00:35:07,VALID,918.704,VALID,0.0,VALID,95.232,VALID,-0.009,VALID,20.882,VALID,358.0,VALID,0.198,
2017-07-18, 00:36:07,VALID,918.673,VALID,0.0,VALID,95.153,VALID,-0.012,VALID,20.87,VALID,9.0,VALID,0.072,
2017-07-18, 00:37:07,VALID,918.656,VALID,0.0,VALID,95.107,VALID,0.007,VALID,20.873,VALID,11.0,VALID,0.133,
2017-07-18, 00:38:07,VALID,918.629,VALID,0.0,VALID,95.12,VALID,0.006,VALID,20.875,VALID,11.0,VALID,0.269,
2017-07-18, 00:39:07,VALID,918.625,VALID,0.0,VALID,95.052,VALID,-0.001,VALID,20.84,VALID,9.0,VALID,0.299,
2017-07-18, 00:40:07,VALID,918.608,VALID,0.0,VALID,95.263,VALID,-0.014,VALID,20.776,VALID,13.0,VALID,0.486,
2017-07-18, 00:41:07,VALID,918.585,VALID,0.0,VALID,95.433,VALID,-0.019,VALID,20.734,VALID,16.0,VALID,0.332,
2017-07-18, 00:42:07,VALID,918.573,VALID,0.0,VALID,95.456,VALID,-0.001,VALID,20.677,VALID,14.0,VALID,0.134,
2017-07-18, 00:43:07,VALID,918.555,VALID,0.0,VALID,95.655,VALID,-0.019,VALID,20.638,VALID,16.0,VALID,0.083,
2017-07-18, 00:44:07,VALID,918.545,VALID,0.0,VALID,95.716,VALID,-0.006,VALID,20.626,VALID,8.0,VALID,0.044,
2017-07-18, 00:45:07,VALID,918.537,VALID,0.0,VALID,95.634,VALID,-0.01,VALID,20.612,VALID,344.0,VALID,0.142,
2017-07-18, 00:46:07,VALID,918.533,VALID,0.0,VALID,95.665,VALID,-0.004,VALID,20.632,VALID,344.0,VALID,0.0,
2017-07-18, 00:47:07,VALID,918.538,VALID,0.0,VALID,95.663,VALID,0.002,VALID,20.647,VALID,341.0,VALID,0.0,
2017-07-18, 00:48:07,VALID,918.532,VALID,0.0,VALID,95.759,VALID,0.014,VALID,20.647,VALID,328.0,VALID,0.0,
2017-07-18, 00:49:07,VALID,918.509,VALID,0.0,VALID,95.761,VALID,0.016,VALID,20.636,VALID,346.0,VALID,0.0,
2017-07-18, 00:50:07,VALID,918.482,VALID,0.0,VALID,95.515,VALID,0.005,VALID,20.605,VALID,17.0,VALID,0.0,
2017-07-18, 00:51:07,VALID,918.461,VALID,0.0,VALID,95.317,VALID,-0.005,VALID,20.535,VALID,16.0,VALID,0.0,
2017-07-18, 00:52:07,VALID,918.454,VALID,0.0,VALID,95.836,VALID,-0.009,VALID,20.498,VALID,9.0,VALID,0.0,
2017-07-18, 00:53:07,VALID,918.449,VALID,0.0,VALID,96.032,VALID,-0.001,VALID,20.472,VALID,359.0,VALID,0.263,
2017-07-18, 00:54:07,VALID,918.444,VALID,0.0,VALID,96.012,VALID,0.001,VALID,20.438,VALID,358.0,VALID,0.32,
2017-07-18, 00:55:07,VALID,918.427,VALID,0.0,VALID,95.962,VALID,-0.014,VALID,20.401,VALID,358.0,VALID,0.26,
2017-07-18, 00:56:07,VALID,918.416,VALID,0.0,VALID,95.959,VALID,-0.03,VALID,20.381,VALID,358.0,VALID,0.295,
2017-07-18, 00:57:07,VALID,918.396,VALID,0.0,VALID,95.811,VALID,-0.024,VALID,20.351,VALID,359.0,VALID,0.348,
2017-07-18, 00:58:07,VALID,918.387,VALID,0.0,VALID,95.845,VALID,-0.024,VALID,20.323,VALID,359.0,VALID,0.201,
2017-07-18, 00:59:07,VALID,918.359,VALID,0.0,VALID,95.9,VALID,-0.014,VALID,20.304,VALID,359.0,VALID,0.002,
2017-07-18, 01:00:07,VALID,918.342,VALID,0.0,VALID,95.967,VALID,-0.023,VALID,20.278,VALID,359.0,VALID,0.0,
2017-07-18, 01:01:07,VALID,918.345,VALID,0.0,VALID,96.075,VALID,-0.025,VALID,20.259,VALID,359.0,VALID,0.0,
2017-07-18, 01:02:07,VALID,918.343,VALID,0.0,VALID,96.049,VALID,-0.024,VALID,20.235,VALID,359.0,VALID,0.0,
2017-07-18, 01:03:07,VALID,918.336,VALID,0.0,VALID,96.103,VALID,-0.022,VALID,20.188,VALID,6.0,VALID,0.345,
2017-07-18, 01:04:07,VALID,918.329,VALID,0.0,VALID,96.204,VALID,-0.025,VALID,20.173,VALID,14.0,VALID,0.503,
2017-07-18, 01:05:07,VALID,918.322,VALID,0.0,VALID,96.256,VALID,-0.023,VALID,20.174,VALID,7.0,VALID,0.009,
2017-07-18, 01:06:07,VALID,918.297,VALID,0.0,VALID,96.186,VALID,-0.015,VALID,20.155,VALID,7.0,VALID,0.0,
2017-07-18, 01:07:07,VALID,918.265,VALID,0.0,VALID,96.499,VALID,-0.018,VALID,20.196,VALID,6.0,VALID,0.0,
2017-07-18, 01:08:07,VALID,918.249,VALID,0.0,VALID,96.73,VALID,-0.011,VALID,20.261,VALID,6.0,VALID,0.0,
2017-07-18, 01:09:07,VALID,918.228,VALID,0.0,VALID,96.636,VALID,-0.016,VALID,20.298,VALID,358.0,VALID,0.0,
2017-07-18, 01:10:07,VALID,918.232,VALID,0.0,VALID,96.504,VALID,-0.016,VALID,20.289,VALID,357.0,VALID,0.0,
2017-07-18, 01:11:07,VALID,918.235,VALID,0.0,VALID,96.16,VALID,-0.01,VALID,20.245,VALID,357.0,VALID,0.0,
2017-07-18, 01:12:07,VALID,918.224,VALID,0.0,VALID,95.976,VALID,-0.009,VALID,20.213,VALID,357.0,VALID,0.0,
2017-07-18, 01:13:07,VALID,918.214,VALID,0.0,VALID,96.118,VALID,-0.007,VALID,20.211,VALID,357.0,VALID,0.0,
2017-07-18, 01:14:07,VALID,918.205,VALID,0.0,VALID,96.331,VALID,-0.028,VALID,20.216,VALID,358.0,VALID,0.0,
2017-07-18, 01:15:07,VALID,918.195,VALID,0.0,VALID,96.69,VALID,-0.019,VALID,20.221,VALID,358.0,VALID,0.0,
2017-07-18, 01:16:07,VALID,918.174,VALID,0.0,VALID,96.654,VALID,-0.012,VALID,20.21,VALID,358.0,VALID,0.0,
2017-07-18, 01:17:07,VALID,918.165,VALID,0.0,VALID,96.763,VALID,-0.024,VALID,20.21,VALID,358.0,VALID,0.0,
2017-07-18, 01:18:07,VALID,918.17,VALID,0.0,VALID,96.863,VALID,-0.013,VALID,20.211,VALID,357.0,VALID,0.0,
2017-07-18, 01:19:07,VALID,918.184,VALID,0.0,VALID,96.554,VALID,-0.015,VALID,20.171,VALID,357.0,VALID,0.0,
2017-07-18, 01:20:07,VALID,918.197,VALID,0.0,VALID,96.191,VALID,-0.014,VALID,20.13,VALID,357.0,VALID,0.0,
2017-07-18, 01:21:07,VALID,918.196,VALID,0.0,VALID,96.198,VALID,-0.013,VALID,20.084,VALID,358.0,VALID,0.0,
2017-07-18, 01:22:07,VALID,918.208,VALID,0.0,VALID,96.003,VALID,-0.008,VALID,20.048,VALID,358.0,VALID,0.0,
2017-07-18, 01:23:07,VALID,918.223,VALID,0.0,VALID,96.101,VALID,-0.023,VALID,20.03,VALID,358.0,VALID,0.0,
2017-07-18, 01:24:07,VALID,918.244,VALID,0.0,VALID,96.576,VALID,-0.006,VALID,20.059,VALID,358.0,VALID,0.0,
2017-07-18, 01:25:07,VALID,918.249,VALID,0.0,VALID,96.613,VALID,0.005,VALID,20.055,VALID,358.0,VALID,0.0,
2017-07-18, 01:26:07,VALID,918.25,VALID,0.0,VALID,96.355,VALID,-0.002,VALID,20.033,VALID,358.0,VALID,0.0,
2017-07-18, 01:27:07,VALID,918.233,VALID,0.0,VALID,96.424,VALID,-0.017,VALID,20.05,VALID,358.0,VALID,0.0,
2017-07-18, 01:28:07,VALID,918.203,VALID,0.0,VALID,96.009,VALID,-0.024,VALID,20.036,VALID,358.0,VALID,0.0,
2017-07-18, 01:29:07,VALID,918.167,VALID,0.0,VALID,96.195,VALID,-0.014,VALID,20.045,VALID,1.0,VALID,0.0,
2017-07-18, 01:30:07,VALID,918.145,VALID,0.0,VALID,96.4,VALID,-0.018,VALID,20.098,VALID,3.0,VALID,0.237,
2017-07-18, 01:31:07,VALID,918.137,VALID,0.0,VALID,96.633,VALID,-0.003,VALID,20.159,VALID,5.0,VALID,0.847,
2017-07-18, 01:32:07,VALID,918.11,VALID,0.0,VALID,96.471,VALID,-0.009,VALID,20.19,VALID,8.0,VALID,0.837,
2017-07-18, 01:33:07,VALID,918.112,VALID,0.0,VALID,96.197,VALID,-0.014,VALID,20.199,VALID,7.0,VALID,0.898,
2017-07-18, 01:34:07,VALID,918.105,VALID,0.0,VALID,96.157,VALID,-0.011,VALID,20.233,VALID,11.0,VALID,1.041,
2017-07-18, 01:35:07,VALID,918.098,VALID,0.0,VALID,96.046,VALID,-0.007,VALID,20.274,VALID,8.0,VALID,0.993,
2017-07-18, 01:36:07,VALID,918.084,VALID,0.0,VALID,95.793,VALID,-0.027,VALID,20.292,VALID,11.0,VALID,0.877,
2017-07-18, 01:37:07,VALID,918.067,VALID,0.0,VALID,95.624,VALID,-0.011,VALID,20.313,VALID,22.0,VALID,0.861,
2017-07-18, 01:38:07,VALID,918.063,VALID,0.0,VALID,95.451,VALID,-0.015,VALID,20.357,VALID,20.0,VALID,0.493,
2017-07-18, 01:39:07,VALID,918.057,VALID,0.0,VALID,95.073,VALID,-0.0,VALID,20.38,VALID,17.0,VALID,0.237,
2017-07-18, 01:40:07,VALID,918.045,VALID,0.0,VALID,94.887,VALID,0.001,VALID,20.381,VALID,16.0,VALID,0.248,
2017-07-18, 01:41:07,VALID,918.026,VALID,0.0,VALID,94.89,VALID,-0.01,VALID,20.388,VALID,11.0,VALID,0.17,
2017-07-18, 01:42:07,VALID,917.998,VALID,0.0,VALID,94.861,VALID,0.001,VALID,20.39,VALID,10.0,VALID,0.132,
2017-07-18, 01:43:07,VALID,917.979,VALID,0.0,VALID,94.722,VALID,0.005,VALID,20.36,VALID,10.0,VALID,0.214,
2017-07-18, 01:44:07,VALID,917.959,VALID,0.0,VALID,94.831,VALID,0.006,VALID,20.304,VALID,10.0,VALID,0.339,
2017-07-18, 01:45:07,VALID,917.956,VALID,0.0,VALID,95.282,VALID,0.003,VALID,20.263,VALID,10.0,VALID,0.428,
2017-07-18, 01:46:07,VALID,917.943,VALID,0.0,VALID,95.685,VALID,0.015,VALID,20.234,VALID,10.0,VALID,0.296,
2017-07-18, 01:47:07,VALID,917.935,VALID,0.0,VALID,95.877,VALID,0.007,VALID,20.204,VALID,10.0,VALID,0.185,
2017-07-18, 01:48:07,VALID,917.931,VALID,0.0,VALID,96.009,VALID,0.007,VALID,20.185,VALID,10.0,VALID,0.029,
2017-07-18, 01:49:07,VALID,917.929,VALID,0.0,VALID,95.95,VALID,0.026,VALID,20.171,VALID,10.0,VALID,0.0,
2017-07-18, 01:50:07,VALID,917.921,VALID,0.0,VALID,95.848,VALID,0.033,VALID,20.157,VALID,10.0,VALID,0.0,
2017-07-18, 01:51:07,VALID,917.927,VALID,0.0,VALID,95.825,VALID,0.009,VALID,20.146,VALID,10.0,VALID,0.0,
2017-07-18, 01:52:07,VALID,917.927,VALID,0.0,VALID,95.685,VALID,0.004,VALID,20.12,VALID,10.0,VALID,0.0,
2017-07-18, 01:53:07,VALID,917.934,VALID,0.0,VALID,95.509,VALID,0.006,VALID,20.1,VALID,10.0,VALID,0.0,
2017-07-18, 01:54:07,VALID,917.937,VALID,0.0,VALID,95.528,VALID,0.007,VALID,20.086,VALID,10.0,VALID,0.014,
2017-07-18, 01:55:07,VALID,917.939,VALID,0.0,VALID,95.131,VALID,0.001,VALID,20.037,VALID,10.0,VALID,0.0,
2017-07-18, 01:56:07,VALID,917.924,VALID,0.0,VALID,95.05,VALID,-0.007,VALID,20.008,VALID,349.0,VALID,0.128,
2017-07-18, 01:57:07,VALID,917.92,VALID,0.0,VALID,95.178,VALID,-0.011,VALID,20.009,VALID,348.0,VALID,0.0,
2017-07-18, 01:58:07,VALID,917.928,VALID,0.0,VALID,95.32,VALID,-0.017,VALID,20.02,VALID,348.0,VALID,0.0,
2017-07-18, 01:59:07,VALID,917.926,VALID,0.0,VALID,95.381,VALID,-0.019,VALID,20.034,VALID,348.0,VALID,0.0,
2017-07-18, 02:00:07,VALID,917.944,VALID,0.0,VALID,95.139,VALID,-0.012,VALID,20.064,VALID,251.0,VALID,0.0,
2017-07-18, 02:01:07,VALID,917.938,VALID,0.0,VALID,94.246,VALID,-0.016,VALID,20.026,VALID,189.0,VALID,0.185,
2017-07-18, 02:02:07,VALID,917.939,VALID,0.0,VALID,93.983,VALID,-0.018,VALID,19.929,VALID,187.0,VALID,0.221,
2017-07-18, 02:03:07,VALID,917.935,VALID,0.0,VALID,94.709,VALID,-0.005,VALID,19.882,VALID,177.0,VALID,0.532,
2017-07-18, 02:04:07,VALID,917.918,VALID,0.0,VALID,95.655,VALID,-0.009,VALID,19.88,VALID,175.0,VALID,0.189,
2017-07-18, 02:05:07,VALID,917.912,VALID,0.0,VALID,96.237,VALID,-0.007,VALID,19.868,VALID,175.0,VALID,0.031,
2017-07-18, 02:06:07,VALID,917.9,VALID,0.0,VALID,96.156,VALID,-0.005,VALID,19.815,VALID,175.0,VALID,0.0,
2017-07-18, 02:07:07,VALID,917.886,VALID,0.0,VALID,95.789,VALID,-0.005,VALID,19.771,VALID,175.0,VALID,0.0,
2017-07-18, 02:08:07,VALID,917.875,VALID,0.0,VALID,96.148,VALID,-0.008,VALID,19.755,VALID,175.0,VALID,0.0,
2017-07-18, 02:09:07,VALID,917.84,VALID,0.0,VALID,96.597,VALID,-0.01,VALID,19.767,VALID,175.0,VALID,0.0,
2017-07-18, 02:10:07,VALID,917.836,VALID,0.0,VALID,96.689,VALID,-0.016,VALID,19.713,VALID,175.0,VALID,0.0,
2017-07-18, 02:11:07,VALID,917.832,VALID,0.0,VALID,96.424,VALID,-0.012,VALID,19.627,VALID,175.0,VALID,0.0,
2017-07-18, 02:12:07,VALID,917.832,VALID,0.0,VALID,96.429,VALID,-0.009,VALID,19.561,VALID,175.0,VALID,0.0,
2017-07-18, 02:13:07,VALID,917.844,VALID,0.0,VALID,96.696,VALID,-0.006,VALID,19.546,VALID,175.0,VALID,0.0,
2017-07-18, 02:14:07,VALID,917.852,VALID,0.0,VALID,97.165,VALID,0.004,VALID,19.59,VALID,175.0,VALID,0.0,
2017-07-18, 02:15:07,VALID,917.849,VALID,0.0,VALID,97.365,VALID,-0.006,VALID,19.609,VALID,258.0,VALID,0.0,
2017-07-18, 02:16:07,VALID,917.825,VALID,0.0,VALID,97.063,VALID,0.0,VALID,19.521,VALID,275.0,VALID,0.0,
2017-07-18, 02:17:07,VALID,917.8,VALID,0.0,VALID,96.741,VALID,0.017,VALID,19.437,VALID,275.0,VALID,0.0,
2017-07-18, 02:18:07,VALID,917.767,VALID,0.0,VALID,96.714,VALID,0.006,VALID,19.405,VALID,277.0,VALID,0.0,
2017-07-18, 02:19:07,VALID,917.73,VALID,0.0,VALID,97.095,VALID,0.007,VALID,19.444,VALID,340.0,VALID,0.0,
2017-07-18, 02:20:07,VALID,917.7,VALID,0.0,VALID,96.999,VALID,0.02,VALID,19.449,VALID,3.0,VALID,0.0,
2017-07-18, 02:21:07,VALID,917.688,VALID,0.0,VALID,97.209,VALID,0.007,VALID,19.508,VALID,3.0,VALID,0.0,
2017-07-18, 02:22:07,VALID,917.678,VALID,0.0,VALID,97.149,VALID,0.007,VALID,19.54,VALID,3.0,VALID,0.305,
2017-07-18, 02:23:07,VALID,917.669,VALID,0.0,VALID,97.113,VALID,0.009,VALID,19.565,VALID,3.0,VALID,0.48,
2017-07-18, 02:24:07,VALID,917.66,VALID,0.0,VALID,96.906,VALID,-0.01,VALID,19.552,VALID,3.0,VALID,0.323,
2017-07-18, 02:25:07,VALID,917.659,VALID,0.0,VALID,96.651,VALID,-0.009,VALID,19.503,VALID,2.0,VALID,0.521,
2017-07-18, 02:26:07,VALID,917.65,VALID,0.0,VALID,96.698,VALID,0.0,VALID,19.492,VALID,358.0,VALID,0.561,
2017-07-18, 02:27:07,VALID,917.656,VALID,0.0,VALID,96.714,VALID,-0.015,VALID,19.489,VALID,349.0,VALID,0.338,
2017-07-18, 02:28:07,VALID,917.661,VALID,0.0,VALID,96.949,VALID,-0.008,VALID,19.536,VALID,339.0,VALID,0.525,
2017-07-18, 02:29:07,VALID,917.648,VALID,0.0,VALID,97.046,VALID,-0.021,VALID,19.565,VALID,355.0,VALID,0.382,
2017-07-18, 02:30:07,VALID,917.646,VALID,0.0,VALID,96.994,VALID,-0.033,VALID,19.545,VALID,337.0,VALID,0.097,
2017-07-18, 02:31:07,VALID,917.641,VALID,0.0,VALID,96.858,VALID,-0.011,VALID,19.521,VALID,340.0,VALID,0.0,
2017-07-18, 02:32:07,VALID,917.619,VALID,0.0,VALID,96.902,VALID,-0.015,VALID,19.525,VALID,337.0,VALID,0.0,
2017-07-18, 02:33:07,VALID,917.622,VALID,0.0,VALID,96.958,VALID,-0.024,VALID,19.522,VALID,337.0,VALID,0.0,
2017-07-18, 02:34:07,VALID,917.62,VALID,0.0,VALID,96.941,VALID,-0.027,VALID,19.502,VALID,337.0,VALID,0.001,
2017-07-18, 02:35:07,VALID,917.603,VALID,0.0,VALID,96.818,VALID,-0.013,VALID,19.463,VALID,337.0,VALID,0.02,
2017-07-18, 02:36:07,VALID,917.612,VALID,0.0,VALID,96.472,VALID,-0.028,VALID,19.391,VALID,337.0,VALID,0.009,
2017-07-18, 02:37:07,VALID,917.62,VALID,0.0,VALID,96.272,VALID,-0.024,VALID,19.316,VALID,339.0,VALID,0.126,
2017-07-18, 02:38:07,VALID,917.632,VALID,0.0,VALID,96.835,VALID,-0.023,VALID,19.33,VALID,340.0,VALID,0.284,
2017-07-18, 02:39:06,VALID,917.654,VALID,0.0,VALID,97.298,VALID,-0.018,VALID,19.363,VALID,345.0,VALID,0.336,
2017-07-18, 02:40:06,VALID,917.664,VALID,0.0,VALID,97.52,VALID,-0.012,VALID,19.388,VALID,347.0,VALID,0.027,
2017-07-18, 02:41:06,VALID,917.677,VALID,0.0,VALID,97.675,VALID,-0.006,VALID,19.42,VALID,347.0,VALID,0.084,
2017-07-18, 02:42:06,VALID,917.695,VALID,0.0,VALID,97.777,VALID,0.022,VALID,19.444,VALID,347.0,VALID,0.071,
2017-07-18, 02:43:06,VALID,917.689,VALID,0.0,VALID,97.756,VALID,-0.004,VALID,19.436,VALID,350.0,VALID,0.0,
2017-07-18, 02:44:06,VALID,917.677,VALID,0.0,VALID,97.61,VALID,-0.012,VALID,19.364,VALID,355.0,VALID,0.0,
2017-07-18, 02:45:06,VALID,917.685,VALID,0.0,VALID,97.337,VALID,-0.007,VALID,19.268,VALID,359.0,VALID,0.0,
2017-07-18, 02:46:06,VALID,917.698,VALID,0.0,VALID,97.602,VALID,-0.013,VALID,19.295,VALID,350.0,VALID,0.245,
2017-07-18, 02:47:06,VALID,917.711,VALID,0.0,VALID,97.907,VALID,-0.002,VALID,19.373,VALID,347.0,VALID,0.722,
2017-07-18, 02:48:06,VALID,917.72,VALID,0.0,VALID,97.925,VALID,0.009,VALID,19.377,VALID,348.0,VALID,0.568,
2017-07-18, 02:49:06,VALID,917.727,VALID,0.0,VALID,97.865,VALID,-0.011,VALID,19.345,VALID,357.0,VALID,0.536,
2017-07-18, 02:50:06,VALID,917.753,VALID,0.0,VALID,97.825,VALID,0.001,VALID,19.312,VALID,2.0,VALID,0.494,
2017-07-18, 02:51:06,VALID,917.763,VALID,0.0,VALID,97.866,VALID,-0.005,VALID,19.31,VALID,360.0,VALID,0.589,
2017-07-18, 02:52:06,VALID,917.772,VALID,0.0,VALID,97.902,VALID,-0.005,VALID,19.318,VALID,6.0,VALID,0.418,
2017-07-18, 02:53:06,VALID,917.771,VALID,0.0,VALID,97.983,VALID,-0.013,VALID,19.347,VALID,352.0,VALID,0.452,
2017-07-18, 02:54:06,VALID,917.762,VALID,0.0,VALID,98.072,VALID,-0.014,VALID,19.384,VALID,356.0,VALID,0.065,
2017-07-18, 02:55:06,VALID,917.752,VALID,0.0,VALID,98.069,VALID,-0.006,VALID,19.376,VALID,358.0,VALID,0.0,
2017-07-18, 02:56:06,VALID,917.749,VALID,0.0,VALID,98.02,VALID,-0.004,VALID,19.366,VALID,360.0,VALID,0.0,
2017-07-18, 02:57:06,VALID,917.769,VALID,0.0,VALID,97.993,VALID,0.014,VALID,19.325,VALID,360.0,VALID,0.0,
2017-07-18, 02:58:06,VALID,917.768,VALID,0.0,VALID,97.919,VALID,0.012,VALID,19.278,VALID,360.0,VALID,0.0,
2017-07-18, 02:59:06,VALID,917.778,VALID,0.0,VALID,97.907,VALID,0.018,VALID,19.255,VALID,360.0,VALID,0.0,
2017-07-18, 03:00:06,VALID,917.788,VALID,0.0,VALID,97.927,VALID,-0.001,VALID,19.248,VALID,360.0,VALID,0.0,
2017-07-18, 03:01:06,VALID,917.79,VALID,0.0,VALID,97.943,VALID,0.016,VALID,19.249,VALID,360.0,VALID,0.0,
2017-07-18, 03:02:06,VALID,917.78,VALID,0.0,VALID,97.994,VALID,0.001,VALID,19.261,VALID,360.0,VALID,0.0,
2017-07-18, 03:03:06,VALID,917.771,VALID,0.0,VALID,98.028,VALID,0.009,VALID,19.262,VALID,360.0,VALID,0.0,
2017-07-18, 03:04:06,VALID,917.774,VALID,0.0,VALID,98.043,VALID,0.006,VALID,19.26,VALID,360.0,VALID,0.0,
2017-07-18, 03:05:06,VALID,917.729,VALID,0.0,VALID,97.995,VALID,0.024,VALID,19.225,VALID,360.0,VALID,0.0,
2017-07-18, 03:06:06,VALID,917.702,VALID,0.0,VALID,97.939,VALID,0.005,VALID,19.19,VALID,360.0,VALID,0.0,
2017-07-18, 03:07:06,VALID,917.672,VALID,0.0,VALID,97.919,VALID,0.017,VALID,19.174,VALID,360.0,VALID,0.0,
2017-07-18, 03:08:06,VALID,917.665,VALID,0.0,VALID,97.944,VALID,0.036,VALID,19.168,VALID,360.0,VALID,0.0,
2017-07-18, 03:09:06,VALID,917.668,VALID,0.0,VALID,97.918,VALID,0.012,VALID,19.133,VALID,360.0,VALID,0.0,
2017-07-18, 03:10:06,VALID,917.682,VALID,0.0,VALID,97.846,VALID,-0.014,VALID,19.109,VALID,342.0,VALID,0.0,
2017-07-18, 03:11:06,VALID,917.678,VALID,0.0,VALID,97.884,VALID,-0.007,VALID,19.131,VALID,182.0,VALID,0.309,
2017-07-18, 03:12:06,VALID,917.671,VALID,0.0,VALID,97.869,VALID,-0.015,VALID,19.108,VALID,182.0,VALID,0.37,
2017-07-18, 03:13:06,VALID,917.66,VALID,0.0,VALID,97.665,VALID,-0.023,VALID,19.031,VALID,182.0,VALID,0.188,
2017-07-18, 03:14:06,VALID,917.654,VALID,0.0,VALID,97.711,VALID,-0.025,VALID,19.014,VALID,182.0,VALID,0.321,
2017-07-18, 03:15:06,VALID,917.65,VALID,0.0,VALID,97.78,VALID,-0.022,VALID,19.006,VALID,182.0,VALID,0.093,
2017-07-18, 03:16:06,VALID,917.642,VALID,0.0,VALID,97.677,VALID,-0.016,VALID,18.956,VALID,182.0,VALID,0.0,
2017-07-18, 03:17:06,VALID,917.631,VALID,0.0,VALID,97.668,VALID,-0.021,VALID,18.923,VALID,182.0,VALID,0.0,
2017-07-18, 03:18:06,VALID,917.629,VALID,0.0,VALID,97.141,VALID,-0.02,VALID,18.793,VALID,182.0,VALID,0.0,
2017-07-18, 03:19:06,VALID,917.621,VALID,0.0,VALID,97.539,VALID,-0.016,VALID,18.863,VALID,182.0,VALID,0.0,
2017-07-18, 03:20:06,VALID,917.619,VALID,0.0,VALID,97.701,VALID,-0.014,VALID,18.88,VALID,182.0,VALID,0.0,
2017-07-18, 03:21:06,VALID,917.614,VALID,0.0,VALID,97.702,VALID,-0.004,VALID,18.871,VALID,182.0,VALID,0.0,
2017-07-18, 03:22:06,VALID,917.636,VALID,0.0,VALID,97.707,VALID,-0.016,VALID,18.861,VALID,182.0,VALID,0.0,
2017-07-18, 03:23:06,VALID,917.644,VALID,0.0,VALID,97.691,VALID,-0.016,VALID,18.848,VALID,182.0,VALID,0.0,
2017-07-18, 03:24:06,VALID,917.657,VALID,0.0,VALID,97.723,VALID,-0.011,VALID,18.864,VALID,182.0,VALID,0.0,
2017-07-18, 03:25:06,VALID,917.658,VALID,0.0,VALID,97.818,VALID,0.015,VALID,18.888,VALID,182.0,VALID,0.0,
2017-07-18, 03:26:06,VALID,917.652,VALID,0.0,VALID,97.463,VALID,0.006,VALID,18.774,VALID,182.0,VALID,0.0,
2017-07-18, 03:27:06,VALID,917.64,VALID,0.0,VALID,97.591,VALID,-0.014,VALID,18.82,VALID,180.0,VALID,0.0,
2017-07-18, 03:28:06,VALID,917.604,VALID,0.0,VALID,97.991,VALID,-0.012,VALID,18.951,VALID,162.0,VALID,0.0,
2017-07-18, 03:29:06,VALID,917.59,VALID,0.0,VALID,97.771,VALID,-0.009,VALID,18.874,VALID,160.0,VALID,0.0,
2017-07-18, 03:30:06,VALID,917.584,VALID,0.0,VALID,97.758,VALID,-0.002,VALID,18.867,VALID,160.0,VALID,0.006,
2017-07-18, 03:31:06,VALID,917.575,VALID,0.0,VALID,97.91,VALID,-0.008,VALID,18.885,VALID,151.0,VALID,0.567,
2017-07-18, 03:32:06,VALID,917.562,VALID,0.0,VALID,97.717,VALID,0.004,VALID,18.768,VALID,138.0,VALID,0.529,
2017-07-18, 03:33:06,VALID,917.564,VALID,0.0,VALID,97.285,VALID,0.007,VALID,18.639,VALID,140.0,VALID,0.6,
2017-07-18, 03:34:06,VALID,917.567,VALID,0.0,VALID,97.612,VALID,-0.011,VALID,18.681,VALID,140.0,VALID,0.318,
2017-07-18, 03:35:06,VALID,917.567,VALID,0.0,VALID,97.575,VALID,-0.001,VALID,18.681,VALID,143.0,VALID,0.526,
2017-07-18, 03:36:06,VALID,917.546,VALID,0.0,VALID,97.874,VALID,-0.011,VALID,18.76,VALID,144.0,VALID,0.661,
2017-07-18, 03:37:06,VALID,917.513,VALID,0.0,VALID,98.116,VALID,-0.02,VALID,18.854,VALID,146.0,VALID,0.752,
2017-07-18, 03:38:06,VALID,917.491,VALID,0.0,VALID,98.062,VALID,-0.014,VALID,18.8,VALID,134.0,VALID,0.484,
2017-07-18, 03:39:06,VALID,917.471,VALID,0.0,VALID,97.785,VALID,0.001,VALID,18.642,VALID,103.0,VALID,0.352,
2017-07-18, 03:40:06,VALID,917.462,VALID,0.0,VALID,97.761,VALID,0.01,VALID,18.606,VALID,109.0,VALID,0.306,